{"data":{"norad_id":52350,"epoch":"2026-05-25T04:53:08.399616Z","epoch_age_seconds":64356,"freshness":"FRESH","line1":"1 52350U 22045V   26145.20356944  .00000046  00000+0  20968-4 0  9997","line2":"2 52350  53.2146 215.6364 0001235  92.0303 268.0830 15.08835707227331","mean_motion":15.08835707,"eccentricity":0.0001235,"inclination_deg":53.2146,"raan_deg":215.6364,"arg_perigee_deg":92.0303,"mean_anomaly_deg":268.083,"bstar":2.0968e-5,"rev_number":22733,"period_min":95.437826220532,"perigee_km":538.90215113017,"apogee_km":540.61087082738,"semimajor_km":6917.8935109788,"source":"CELESTRAK","updated_at":"2026-05-25T13:38:17.116636Z"}}